When you browse on this site, cookies collect data to enhance your experience and personalize the content and advertising you see.
Visit our Privacy Policy to learn more. By continuing to use the site, you agree to this use of cookies and data.
  • în România
  • Lista ţărilor
  • Pe 7 zile
  • Temperatura apei
  • Meteo pe hartă
  • Widget-uri
  • user-avatar
    Intrare

    Meteo pe oră la Kurytyba

    Astăzi, 14 Noiembrie, Joi

    Timp Temperatura Precipitaţii Vânt Presiune Umiditate
    00:00 +19°C° 0.3 mm 1 m/s 679 mmHg 97%
    01:00 +19°C° 0.2 mm 1 m/s 679 mmHg 96%
    02:00 +19°C° 0.2 mm 1 m/s 678 mmHg 96%
    03:00 +19°C° 0 mm 1 m/s 678 mmHg 96%
    04:00 +19°C° 1.4 mm 1 m/s 677 mmHg 96%
    05:00 +19°C° 1.4 mm 1 m/s 677 mmHg 97%
    06:00 +19°C° 1.4 mm 1 m/s 677 mmHg 97%
    07:00 +18°C° 1.8 mm 2 m/s 677 mmHg 96%
    08:00 +19°C° 1.8 mm 2 m/s 677 mmHg 96%
    09:00 +19°C° 0 mm 3 m/s 678 mmHg 97%
    10:00 +19°C° 0.7 mm 3 m/s 677 mmHg 96%
    11:00 +20°C° 0.7 mm 3 m/s 677 mmHg 94%
    12:00 +20°C° 0.7 mm 3 m/s 676 mmHg 92%
    13:00 +21°C° 0.5 mm 4 m/s 676 mmHg 90%
    14:00 +21°C° 0.5 mm 4 m/s 676 mmHg 89%
    15:00 +22°C° 0.5 mm 4 m/s 676 mmHg 87%
    16:00 +22°C° 0.5 mm 3 m/s 676 mmHg 88%
    17:00 +21°C° 0.5 mm 3 m/s 675 mmHg 89%
    18:00 +21°C° 0.5 mm 2 m/s 675 mmHg 90%
    19:00 +21°C° 0 mm 2 m/s 675 mmHg 92%
    20:00 +20°C° 0 mm 2 m/s 676 mmHg 93%
    21:00 +20°C° 0 mm 1 m/s 676 mmHg 95%
    22:00 +19°C° 0 mm 2 m/s 676 mmHg 95%
    23:00 +19°C° 0 mm 2 m/s 676 mmHg 95%

    Mâine, 15 Noiembrie, Vineri

    Timp Temperatura Precipitaţii Vânt Presiune Umiditate
    00:00 +19°C° 0 mm 2 m/s 676 mmHg 95%
    01:00 +18°C° 0 mm 2 m/s 676 mmHg 96%
    02:00 +19°C° 0 mm 1 m/s 676 mmHg 96%
    03:00 +18°C° 0 mm 1 m/s 675 mmHg 96%
    04:00 +17°C° 0 mm 2 m/s 676 mmHg 95%
    05:00 +17°C° 0 mm 2 m/s 676 mmHg 95%
    06:00 +16°C° 0 mm 2 m/s 676 mmHg 94%
    07:00 +18°C° 0 mm 2 m/s 677 mmHg 80%
    08:00 +20°C° 0 mm 2 m/s 677 mmHg 65%
    09:00 +23°C° 0 mm 2 m/s 678 mmHg 51%
    10:00 +25°C° 0 mm 2 m/s 678 mmHg 45%
    11:00 +26°C° 0 mm 2 m/s 678 mmHg 39%
    12:00 +28°C° 0 mm 2 m/s 678 mmHg 33%
    13:00 +28°C° 0 mm 2 m/s 678 mmHg 34%
    14:00 +28°C° 0 mm 2 m/s 678 mmHg 36%
    15:00 +28°C° 0 mm 2 m/s 677 mmHg 38%
    16:00 +26°C° 0 mm 2 m/s 677 mmHg 49%
    17:00 +24°C° 0 mm 2 m/s 677 mmHg 60%
    18:00 +21°C° 0 mm 2 m/s 677 mmHg 71%
    19:00 +20°C° 0.1 mm 3 m/s 677 mmHg 77%
    20:00 +18°C° 0.1 mm 3 m/s 678 mmHg 83%
    21:00 +17°C° 0.1 mm 3 m/s 678 mmHg 89%
    22:00 +17°C° 0 mm 2 m/s 678 mmHg 89%
    23:00 +16°C° 0 mm 2 m/s 678 mmHg 89%

    Poimâine, 16 Noiembrie, Sâmbătă

    Timp Temperatura Precipitaţii Vânt Presiune Umiditate
    00:00 +16°C° 0 mm 1 m/s 678 mmHg 88%
    01:00 +16°C° 0 mm 1 m/s 677 mmHg 90%
    02:00 +16°C° 0 mm 1 m/s 677 mmHg 91%
    03:00 +15°C° 0 mm 1 m/s 677 mmHg 92%
    04:00 +15°C° 0 mm 1 m/s 677 mmHg 91%
    05:00 +15°C° 0 mm 1 m/s 677 mmHg 91%
    06:00 +15°C° 0 mm 1 m/s 677 mmHg 90%
    07:00 +18°C° 0 mm 1 m/s 678 mmHg 82%
    08:00 +19°C° 0 mm 1 m/s 678 mmHg 75%
    09:00 +21°C° 0 mm 1 m/s 679 mmHg 67%
    10:00 +23°C° 0 mm 1 m/s 679 mmHg 61%
    11:00 +24°C° 0 mm 1 m/s 679 mmHg 55%
    12:00 +26°C° 0 mm 1 m/s 679 mmHg 49%
    13:00 +26°C° 0 mm 1 m/s 679 mmHg 47%
    14:00 +27°C° 0 mm 2 m/s 678 mmHg 45%
    15:00 +27°C° 0 mm 2 m/s 678 mmHg 44%
    16:00 +25°C° 0 mm 2 m/s 678 mmHg 54%
    17:00 +23°C° 0 mm 2 m/s 677 mmHg 65%
    18:00 +20°C° 0 mm 3 m/s 677 mmHg 76%
    19:00 +19°C° 0 mm 3 m/s 677 mmHg 80%
    20:00 +17°C° 0 mm 2 m/s 678 mmHg 84%
    21:00 +16°C° 0 mm 2 m/s 678 mmHg 89%
    22:00 +16°C° 0 mm 2 m/s 678 mmHg 88%
    23:00 +16°C° 0 mm 2 m/s 678 mmHg 87%

    17 Noiembrie, Duminică

    Timp Temperatura Precipitaţii Vânt Presiune Umiditate
    00:00 +16°C° 0 mm 2 m/s 679 mmHg 86%
    01:00 +16°C° 0 mm 2 m/s 679 mmHg 86%
    02:00 +16°C° 0 mm 2 m/s 678 mmHg 86%
    03:00 +15°C° 0 mm 1 m/s 678 mmHg 86%
    04:00 +15°C° 0 mm 1 m/s 678 mmHg 87%
    05:00 +15°C° 0 mm 1 m/s 679 mmHg 88%
    06:00 +14°C° 0 mm 1 m/s 679 mmHg 89%
    07:00 +16°C° 0 mm 1 m/s 679 mmHg 80%
    08:00 +19°C° 0 mm 1 m/s 680 mmHg 72%
    09:00 +20°C° 0 mm 1 m/s 681 mmHg 63%
    10:00 +21°C° 0 mm 2 m/s 681 mmHg 57%
    11:00 +24°C° 0 mm 2 m/s 681 mmHg 51%
    12:00 +26°C° 0 mm 2 m/s 681 mmHg 45%
    13:00 +26°C° 0 mm 2 m/s 680 mmHg 45%
    14:00 +26°C° 0 mm 2 m/s 680 mmHg 45%
    15:00 +26°C° 0 mm 2 m/s 680 mmHg 45%
    16:00 +24°C° 0 mm 3 m/s 680 mmHg 55%
    17:00 +22°C° 0 mm 3 m/s 679 mmHg 64%
    18:00 +20°C° 0 mm 3 m/s 679 mmHg 74%
    19:00 +18°C° 0 mm 3 m/s 679 mmHg 79%
    20:00 +17°C° 0 mm 2 m/s 680 mmHg 83%
    21:00 +15°C° 0 mm 2 m/s 680 mmHg 88%
    22:00 +15°C° 0 mm 2 m/s 680 mmHg 88%
    23:00 +14°C° 0 mm 2 m/s 680 mmHg 88%

    18 Noiembrie, Luni

    Timp Temperatura Precipitaţii Vânt Presiune Umiditate
    00:00 +14°C° 0 mm 2 m/s 680 mmHg 88%
    01:00 +14°C° 0 mm 2 m/s 680 mmHg 87%
    02:00 +14°C° 0 mm 2 m/s 679 mmHg 86%
    03:00 +14°C° 0 mm 2 m/s 679 mmHg 85%
    04:00 +14°C° 0 mm 1 m/s 680 mmHg 85%
    05:00 +14°C° 0 mm 1 m/s 680 mmHg 84%
    06:00 +14°C° 0 mm 1 m/s 680 mmHg 84%
    07:00 +15°C° 0 mm 1 m/s 681 mmHg 75%
    08:00 +18°C° 0 mm 1 m/s 681 mmHg 66%
    09:00 +19°C° 0 mm 2 m/s 682 mmHg 57%
    10:00 +21°C° 0 mm 2 m/s 682 mmHg 49%
    11:00 +24°C° 0 mm 2 m/s 682 mmHg 42%
    12:00 +26°C° 0 mm 2 m/s 683 mmHg 35%
    13:00 +26°C° 0 mm 2 m/s 682 mmHg 36%
    14:00 +26°C° 0 mm 2 m/s 682 mmHg 38%
    15:00 +26°C° 0 mm 3 m/s 681 mmHg 39%
    16:00 +24°C° 0 mm 3 m/s 681 mmHg 49%
    17:00 +21°C° 0 mm 3 m/s 681 mmHg 58%
    18:00 +19°C° 0 mm 3 m/s 680 mmHg 67%
    19:00 +18°C° 0 mm 3 m/s 681 mmHg 75%
    20:00 +16°C° 0 mm 2 m/s 681 mmHg 82%
    21:00 +15°C° 0 mm 2 m/s 681 mmHg 90%
    22:00 +15°C° 0 mm 2 m/s 681 mmHg 89%
    23:00 +15°C° 0 mm 2 m/s 682 mmHg 88%

    19 Noiembrie, Marţi

    Timp Temperatura Precipitaţii Vânt Presiune Umiditate
    00:00 +15°C° 0 mm 2 m/s 682 mmHg 87%
    01:00 +15°C° 0 mm 2 m/s 682 mmHg 86%
    02:00 +15°C° 0 mm 2 m/s 681 mmHg 86%
    03:00 +15°C° 0 mm 1 m/s 681 mmHg 86%
    04:00 +15°C° 0 mm 1 m/s 681 mmHg 87%
    05:00 +14°C° 0 mm 1 m/s 681 mmHg 89%
    06:00 +14°C° 0 mm 1 m/s 681 mmHg 90%
    07:00 +16°C° 0 mm 1 m/s 682 mmHg 79%
    08:00 +19°C° 0 mm 1 m/s 682 mmHg 67%
    09:00 +21°C° 0 mm 1 m/s 683 mmHg 55%
    10:00 +23°C° 0 mm 2 m/s 683 mmHg 50%
    11:00 +25°C° 0 mm 2 m/s 683 mmHg 45%
    12:00 +27°C° 0 mm 2 m/s 683 mmHg 40%
    13:00 +27°C° 0 mm 2 m/s 683 mmHg 41%
    14:00 +27°C° 0 mm 2 m/s 682 mmHg 43%
    15:00 +27°C° 0 mm 3 m/s 682 mmHg 44%
    16:00 +25°C° 0 mm 3 m/s 681 mmHg 54%
    17:00 +22°C° 0 mm 3 m/s 681 mmHg 64%
    18:00 +20°C° 0 mm 3 m/s 681 mmHg 74%
    19:00 +19°C° 0 mm 3 m/s 681 mmHg 79%
    20:00 +18°C° 0 mm 3 m/s 681 mmHg 84%
    21:00 +16°C° 0 mm 2 m/s 682 mmHg 90%
    22:00 +16°C° 0 mm 2 m/s 682 mmHg 90%
    23:00 +16°C° 0 mm 2 m/s 682 mmHg 90%
    Arată mai mult